Location: Cremona
(45.1170°N, 10.0330°E)
Time: 23:45:57
(UTC+01:00)

ISS - Pass Details

Date: 28 January 2019
Orbit: 403 x 411 km, 51.6° (Epoch: 18 February)

Event Time Altitude Azimuth Distance (km) Brightness Sun altitude
Rises 19:06:23 0° 273° (W) 2,333 1.6 -18.6°
Reaches altitude 10° 19:08:38 10° 285° (WNW) 1,475 0.0 -19.0°
Maximum altitude 19:11:36 29° 348° (NNW) 777 -2.4 -19.5°
Enters shadow 19:11:51 29° 358° (N) 785 -2.5 -19.5°
